SCP
0 0 0 0 0 0 0 0 0 0 0 0 0 0 0 0 0 0 0 0 0 0 0 0 0 0 0 0 0 0 0 0 0 0 0 0 0 0 0 0 0 0 0 0
0 0 0 0 0 0 0 0 0 0 0 0 0 0 0 0 0 0 0 0 0 0 0 0 0 0 0 0 0 0 0 0 0 0 0 0 0 0 0 0 0 0 0 0
0 0 0 0 0 0 0 0 0 0 0 0 0 0 0 0 0 0 0 0 0 0 0 0 0 0 0 0 0 0 0 0 0 0 0 0 0 0 0 0 0 0 0 0
0 0 0 0 0 0 0 0 0 0 0 0 0 0 0 0 0 0 0 0 0 0 0 0 0 0 0 0 0 0 0 0 0 0 0 0 0 0 0 0 0 0 0 0
0 0 0 0 0 0 0 0 0 0 0 0 0 0 0 0 0 0 0 0 0 0 0 0 0 0 0 0 0 0 0 0 0 0 0 0 0 0 0 0 0 0 0 0
0 0 0 0 0 0 0 0 0 0 0 0 0 0 0 0 0 0 0 0 0 0 0 0 0 0 0 0 0 0 0 0 0 0 0 0 0 0 0 0 0 0 0 0
0 0 0 0 0 0 0 0 0 0 0 0 0 0 0 0 0 0 0 0 0 0 0 0 0 0 0 0 0 0 0 0 0 0 0 0 0 0 0 0 0 0 0 0
0 0 0 0 0 0 0 0 0 0 0 0 0 0 0 0 0 0 0 0 0 0 0 0 0 0 0 0 0 0 0 0 0 0 0 0 0 0 0 0 0 0 0 0
0 0 0 0 0 0 0 0 0 0 0 0 0 0 0 0 0 0 0 0 0 0 0 0 0 0 0 0 0 0 0 0 0 0 0 0 0 0 0 0 0 0 0 0
0 0 0 0 0 0 0 0 0 0 0 0 0 0 0 0 0 0 0 0 0 0 0 0 0 0 0 0 0 0 0 0 0 0 0 0 0 0 0 0 0 0 0 0
0 0 0 0 0 0 0 0 0 0 0 0 0 0 0 0 0 0 0 0 0 0 0 0 0 0 0 0 0 0 0 0 0 0 0 0 0 0 0 0 0 0 0 0
0 0 0 0 0 0 0 0 0 0 0 0 0 0 0 0 0 0 0 0 0 0 0 0 0 0 0 0 0 0 0 0 0 0 0 0 0 0 0 0 0 0 0 0
0 0 0 0 0 0 0 0 0 0 0 0 0 0 0 0 0 0 0 0 0 0 0 0 0 0 0 0 0 0 0 0 0 0 0 0 0 0 0 0 0 0 0 0
0 0 0 0 0 0 0 0 0 0 0 0 0 0 0 0 0 0 0 0 0 0 0 0 0 0 0 0 0 0 0 0 0 0 0 0 0 0 0 0 0 0 0 0
0 0 0 0 0 0 0 0 0 0 0 0 0 0 0 0 0 0 0 0 0 0 0 0 0 0 0 0 0 0 0 0 0 0 0 0 0 0 0 0 0 0 0 0
0 0 0 0 0 0 0 0 0 0 0 0 -0 -0 -0 0 0 0 0 0 0 0 0 0 0 0 0 0 0 0 0 0 0 0 0 0 0 0 0 0 0 0 0 0
0 0 0 0 0 0 0 0 0 0 0 0 0 -0 -0 -0 0 0 0 0 0 0 0 0 0 0 0 0 0 0 0 0 0 0 0 0 0 0 0 0 0 0 0 0
0 0 0 0 0 0 0 0 0 0 0 0 0 0 0 0 0 0 0 0 0 0 0 0 0 0 0 0 0 0 0 0 0 0 0 0 0 0 0 0 0 0 0 0
0 0 0 0 0 0 0 0 0 0 0 0 0 0 0 0 0 0 0 0 0 0 0 0 0 0 0 0 0 0 0 0 0 0 0 0 0 0 0 0 0 0 0 0
0 0 0 0 0 0 0 0 0 0 0 0 0 0 0 0 0 0 0 0 0 0 0 0 0 0 0 0 0 0 0 0 0 0 0 0 0 0 0 0 0 0 0 0
0 0 0 0 0 0 0 0 0 0 0 0 0 0 0 0 0 0 0 0 0 0 0 0 0 0 0 0 0 0 0 0 0 0 0 0 0 0 0 0 0 0 0 0
0 0 0 0 0 0 0 0 0 0 0 0 0 0 0 0 0 0 0 0 0 0 0 0 0 0 0 0 0 0 0 0 0 0 0 0 0 0 0 0 0 0 0 0
0 0 0 0 0 0 0 0 0 0 0 0 0 0 0 0 0 0 0 0 0 0 0 0 0 0 0 0 0 0 0 0 0 0 0 0 0 0 0 0 0 0 0 0
0 0 0 0 0 0 0 0 0 0 -0 0 0 0 0 0 0 0 0 0 0 0 0 0 0 0 0 0 0 0 0 0 0 0 0 0 0 0 0 0 0 0 0 0
0 0 0 0 0 0 0 0 0 0 0 0 0 0 0 0 0 0 0 0 0 0 0 0 0 0 0 0 0 0 0 0 0 0 0 0 0 0 0 0 0 0 0 0
0 0 0 0 0 0 0 0 0 0 0 0 0 0 0 0 0 0 0 0 0 0 0 0 0 0 0 0 0 0 0 0 0 0 0 0 0 0 0 0 0 0 0 0
0 0 0 0 0 0 0 0 0 0 0 0 0 0 0 0 0 0 0 0 0 0 0 0 0 0 0 0 0 0 0 0 0 0 0 0 0 0 0 0 0 0 0 0
Wind_Speed
8 7 6 8 9 9 11 12 12 10 10 9 8 6 5 4 3 2 3 4 4 5 5 5 6 6 7 7 7 7 7 7 6 6 5 5 5 4 4 4 4 4 4 3
7 6 6 9 10 10 11 11 12 12 11 8 6 5 4 3 3 3 3 3 4 5 5 6 6 6 6 6 7 7 7 7 6 6 6 6 5 5 4 4 4 4 4 4
7 5 7 9 8 9 9 8 10 11 8 6 5 4 3 3 2 2 2 2 3 5 5 5 5 6 6 6 6 7 7 7 7 7 6 6 5 5 5 5 4 4 4 4
6 6 9 3 2 4 6 6 7 8 7 6 5 3 1 1 1 2 2 3 3 3 4 4 5 5 5 6 6 7 6 6 6 6 6 6 6 5 5 5 4 4 4 4
5 7 8 4 2 3 5 4 4 5 4 4 3 3 2 2 2 2 2 3 2 2 3 4 5 5 6 6 6 6 6 5 6 6 6 6 6 5 5 4 4 4 4 4
7 8 7 3 2 4 7 5 3 3 3 3 2 4 1 2 2 2 3 3 2 1 2 3 4 5 6 6 6 5 5 5 5 5 5 5 5 5 4 4 4 3 3 4
8 8 5 3 3 3 6 2 3 3 3 3 4 4 3 2 2 2 2 2 2 1 1 2 4 5 6 5 5 4 4 4 4 4 5 4 4 4 4 3 3 3 3 3
6 7 4 4 0 1 4 4 4 4 4 4 4 3 3 3 2 2 2 1 1 1 1 2 3 4 5 4 3 3 4 4 4 4 4 4 4 4 4 4 4 4 4 3
4 2 3 1 1 3 4 4 5 5 5 4 4 4 4 4 3 3 3 2 2 1 2 2 4 4 4 3 3 4 4 4 4 4 4 4 4 4 4 4 3 3 3 3
5 5 4 3 4 5 5 6 6 6 5 4 4 5 4 4 4 3 3 2 2 2 3 3 4 4 4 3 4 4 4 3 3 4 4 3 3 3 3 4 4 3 3 3
8 7 6 6 6 6 7 7 6 6 6 5 5 5 5 4 4 4 3 3 3 3 4 4 4 4 4 4 5 4 4 3 3 3 3 3 3 2 3 3 2 3 3 3
7 7 8 8 7 8 8 8 7 7 6 6 5 6 6 5 5 4 4 4 4 4 4 4 4 4 4 5 5 5 4 3 2 2 2 2 2 2 1 2 2 2 2 3
9 9 9 10 9 9 9 8 8 8 7 7 6 6 6 6 5 5 5 4 4 4 4 4 4 4 4 5 5 5 4 4 3 3 3 3 3 3 2 2 3 4 4 4
7 8 9 9 9 8 8 8 7 7 6 6 6 6 5 5 5 5 5 4 4 4 4 4 4 4 4 5 5 5 5 4 4 4 4 4 4 3 3 3 2 2 3 4
7 8 8 8 8 7 7 6 6 6 6 6 5 5 5 6 6 6 5 4 3 4 4 4 4 4 4 5 5 6 5 4 4 3 4 4 4 4 3 4 3 2 2 2
7 7 6 7 7 7 7 7 7 7 7 6 6 6 6 6 6 5 5 4 4 5 4 4 5 4 4 5 6 5 4 5 4 4 4 4 4 4 4 4 3 3 3 2
6 6 7 7 8 8 8 8 8 8 7 7 6 6 6 5 5 5 5 4 5 4 4 4 4 3 4 5 5 4 4 5 7 5 4 4 4 4 4 4 4 3 3 2
7 8 8 8 8 8 9 8 8 8 7 6 6 5 5 6 6 5 5 4 4 4 4 3 3 3 4 5 4 4 4 4 5 5 4 4 4 4 4 4 4 4 3 3
7 7 8 8 8 8 8 7 7 6 6 6 5 6 6 6 6 5 5 5 5 5 4 3 3 4 4 4 4 4 4 5 5 5 4 4 4 4 4 4 4 4 3 3
6 6 6 7 7 7 6 6 5 5 5 5 6 6 6 6 5 5 5 5 4 4 3 2 3 3 4 4 4 4 5 5 5 5 4 4 5 4 4 4 4 4 3 3
6 6 6 6 6 6 6 5 5 5 5 5 5 5 5 5 5 5 5 4 3 3 2 3 3 2 2 2 4 4 4 4 5 4 4 4 4 4 4 4 4 4 3 3
6 6 6 5 5 5 5 5 4 5 5 4 4 4 4 5 5 4 4 3 2 2 2 2 2 1 2 2 2 3 4 4 4 4 4 4 4 4 4 4 4 3 3 3
6 6 5 5 5 5 5 5 4 4 4 4 4 4 4 4 3 3 3 2 2 2 2 2 2 3 3 2 2 3 4 4 4 4 4 4 4 4 4 4 3 3 3 3
6 6 5 5 4 5 5 5 4 3 4 4 4 4 4 3 3 3 2 1 2 2 2 2 2 3 3 2 2 3 3 4 4 4 4 4 4 4 4 4 3 3 3 4
6 5 5 5 4 4 4 4 4 4 3 3 3 3 3 3 2 2 2 2 2 2 2 2 3 3 3 2 2 3 3 3 3 4 4 4 4 4 4 4 3 3 3 3
5 5 4 5 4 4 3 3 3 3 3 3 3 2 2 2 1 1 1 2 2 2 2 2 2 2 2 2 2 2 3 3 4 4 4 4 4 4 4 4 4 3 3 3
5 4 4 4 4 3 3 3 3 3 3 3 3 3 2 1 1 1 1 1 2 2 1 1 1 2 2 2 2 2 2 2 3 3 3 3 3 4 4 4 3 3 3 3
Wind_Direction
270 275 263 261 255 236 239 253 263 268 269 278 288 291 288 280 265 235 210 199 198 199 194 189 188 187 184 180 179 180 183 191 196 197 196 194 191 194 195 195 200 203 209 214
261 256 259 263 263 254 250 255 259 265 270 284 294 292 288 284 277 245 224 214 208 201 198 195 191 191 185 180 180 182 187 192 188 193 190 192 195 197 198 199 203 203 213 219
264 266 267 260 260 253 248 248 250 257 273 291 289 292 300 305 295 284 277 257 229 210 204 202 197 192 188 181 179 185 188 188 185 191 192 195 193 196 199 204 206 213 220 223
270 260 252 291 346 271 253 270 271 268 277 287 290 290 301 347 325 308 306 286 264 233 211 203 196 189 184 178 181 186 189 186 186 190 191 193 196 200 203 209 209 217 224 229
253 257 261 256 267 269 252 258 303 285 286 295 297 242 165 61 356 339 332 314 287 261 221 195 186 182 176 176 180 186 188 186 187 191 192 192 198 203 206 209 214 219 222 228
241 253 260 289 328 293 255 244 1 325 305 299 269 250 235 32 352 346 355 354 344 291 219 188 178 178 176 174 181 189 189 188 185 191 193 194 199 201 201 207 215 220 224 233
242 252 265 344 337 259 244 318 13 338 327 297 273 311 346 348 340 348 356 358 354 299 224 188 177 181 182 179 187 183 176 180 182 187 190 191 194 195 193 198 207 217 223 231
236 242 247 42 354 271 339 1 349 338 332 323 318 333 326 307 313 318 324 331 332 272 224 186 180 188 191 187 176 166 167 178 179 178 181 184 185 191 196 197 206 216 222 227
255 279 20 16 321 333 327 318 325 321 321 323 318 311 304 298 294 286 279 285 292 268 226 197 190 197 201 186 171 169 174 177 177 177 180 186 186 189 197 205 212 216 221 227
258 258 282 295 298 306 302 304 306 307 308 301 296 296 295 292 287 280 272 276 273 247 228 214 200 204 206 184 181 183 184 181 181 186 183 188 195 200 204 209 212 215 222 231
260 270 276 271 281 293 297 299 300 300 292 288 288 284 285 284 282 278 273 268 257 244 234 224 208 201 196 186 184 190 190 188 190 192 192 197 202 211 219 221 230 232 233 235
265 278 280 288 298 295 290 289 290 291 289 282 279 280 279 279 276 271 270 269 258 248 236 224 214 207 194 189 189 191 191 191 193 194 194 194 193 181 148 212 186 222 257 259
278 283 282 287 290 289 284 285 285 284 280 282 283 281 281 281 277 272 267 265 260 252 242 227 216 211 199 193 195 200 199 198 197 196 195 198 198 197 189 172 180 201 213 226
273 274 272 278 283 286 285 285 285 282 279 279 281 279 276 273 271 267 265 266 267 255 242 231 225 219 208 202 202 205 204 197 198 197 198 202 203 206 206 204 201 200 193 196
273 273 276 282 283 285 289 289 285 285 288 284 278 275 272 269 268 269 268 264 254 246 242 235 231 228 216 206 209 212 208 201 199 197 199 201 201 204 208 211 213 211 206 183
282 275 275 276 280 285 287 286 281 281 282 280 277 275 273 271 271 269 264 256 247 244 242 239 238 232 221 212 210 214 211 197 201 201 198 197 198 201 204 208 211 213 221 217
278 278 281 280 282 282 281 280 277 277 278 275 276 274 270 266 264 267 268 262 256 255 249 245 243 233 222 217 214 209 208 197 195 203 201 201 201 203 206 209 213 220 229 219
279 278 277 275 274 277 278 279 277 276 273 275 275 268 260 256 259 265 269 261 253 252 248 248 249 236 225 219 214 209 205 201 200 203 203 205 207 207 207 209 211 218 222 201
284 283 283 283 281 278 278 280 280 278 278 272 265 264 264 262 259 259 258 246 243 250 254 242 238 240 228 217 214 209 204 201 201 204 204 197 205 210 208 208 210 214 216 211
293 291 290 291 290 287 285 282 280 279 278 274 268 265 266 264 258 252 251 250 250 257 256 244 233 234 232 218 212 210 204 203 204 204 201 201 206 209 208 208 210 214 214 216
301 297 296 297 298 297 293 286 280 279 282 277 268 264 264 264 257 250 248 252 256 255 238 219 229 226 226 211 213 211 203 205 206 205 204 206 208 209 210 210 211 214 216 219
302 297 296 298 300 301 300 294 289 287 284 280 277 272 268 265 261 257 253 251 239 209 220 222 221 202 197 208 218 210 206 209 211 209 209 209 210 212 216 217 217 217 220 223
303 300 298 299 301 303 302 298 295 289 283 280 278 275 271 271 262 248 250 245 219 200 223 225 200 189 202 215 212 209 208 210 211 208 209 211 213 216 219 221 220 220 221 224
303 302 300 301 301 298 298 303 303 296 288 285 281 279 275 268 260 257 253 209 213 224 236 212 204 206 215 220 215 212 210 210 212 212 212 214 215 214 218 220 218 217 220 226
295 293 292 294 293 290 292 296 300 298 294 297 298 295 287 274 266 257 235 215 208 226 239 222 217 223 230 222 221 222 219 214 214 214 212 213 215 217 219 219 217 217 218 224
291 289 288 286 286 285 285 283 281 282 283 288 296 298 296 295 286 272 231 219 222 230 235 227 223 230 232 223 225 229 229 221 216 217 217 216 217 218 218 218 218 219 221 224
287 288 286 285 286 285 280 274 273 275 274 272 282 292 293 291 283 263 241 231 227 231 240 241 233 232 229 232 236 238 237 231 226 223 219 218 220 221 220 219 218 219 220 221